Weather History for Alexandria, Egypt

Change the Weather History Date:

Wednesday, February 26, 2014

  Actual Average Record
Temperature  
Mean Temperature 62 °F -  
Max Temperature 68 °F 66 °F 75 °F (2001)
Min Temperature 56 °F 51 °F 42 °F (2009)
Degree Days  
Heating Degree Days 3    
Growing Degree Days 12 (Base 50)    
Moisture  
Dew Point 48 °F    
Average Humidity 58    
Maximum Humidity 72    
Minimum Humidity 41    
Precipitation  
Precipitation 0.00 in 0.02 in - ()
Sea Level Pressure  
Sea Level Pressure 30.15 in    
Wind  
Wind Speed 7 mph ()    
Max Wind Speed 12 mph    
Max Gust Speed -    
Visibility 6.1 miles    
Events      
Averages and records for this station are not official NWS values.
T = Trace of Precipitation, MM = Missing Value Source: Averaged Metar Reports

Daily Weather History Graph

Daily Weather History Graph

Search for Another Location

Airport:

Trip Planner

Search our weather history database for the weather conditions in past years. The results will help you decide how hot, cold, wet, or windy it might be!

Date:

Astronomy

Feb. 26, 2014 Rise Set
Actual Time 6:30 AM EET 5:56 PM EET
Civil Twilight 6:06 AM EET 6:20 PM EET
Nautical Twilight 5:38 AM EET 6:48 PM EET
Astronomical Twilight 5:10 AM EET 7:16 PM EET
Moon 3:51 AM EET (2/26) 2:55 PM EET (2/26)
Length of Visible Light 12h 14m
Length of Day
11h 25m
Waning Crescent, 12% of the Moon is Illuminated
Feb 26
Waning Crescent
Mar 1
New
Mar 8
First Quarter
Mar 16
Full
Mar 24
Last Quarter

Hourly Weather History & Observations

Time (EET) Temp. Dew Point Humidity Pressure Visibility Wind Dir Wind Speed Gust Speed Precip Events Conditions
12:00 AM 60.8 °F 46.4 °F 59% 30.15 in 6.2 mi WNW 8.1 mph - N/A   Partly Cloudy
1:00 AM 60.8 °F 46.4 °F 59% 30.12 in - WNW 6.9 mph - N/A   Clear
2:00 AM 60 °F 47 °F 53% 30.12 in 6 mi WNW 8.1 mph - -  
2:00 AM 59.0 °F 48.2 °F 67% 30.12 in - WNW 8.1 mph - N/A   Clear
3:00 AM 59.0 °F 48.2 °F 67% 30.12 in - NW 6.9 mph - N/A   Clear
4:00 AM 57.2 °F 48.2 °F 72% 30.12 in - NW 6.9 mph - N/A   Clear
5:00 AM 58 °F 46 °F 56% 30.12 in 6 mi NW 5.8 mph - -   Scattered Clouds
5:00 AM 59.0 °F 46.4 °F 63% 30.12 in 6.2 mi NW 5.8 mph - N/A   Partly Cloudy
6:00 AM 57.2 °F 46.4 °F 67% 30.12 in 6.2 mi NW 6.9 mph - N/A   Partly Cloudy
7:00 AM 57.2 °F 44.6 °F 63% 30.12 in 6.2 mi NW 9.2 mph - N/A   Partly Cloudy
8:00 AM 63 °F 48 °F 47% 30.16 in 6 mi NW 6.9 mph - -   Partly Cloudy
8:00 AM 57.2 °F 48.2 °F 72% 30.15 in 6.2 mi NW 6.9 mph - N/A   Scattered Clouds
9:00 AM 64.4 °F 48.2 °F 56% 30.18 in 6.2 mi North 5.8 mph - N/A   Scattered Clouds
10:00 AM 66.2 °F 48.2 °F 52% 30.18 in 6.2 mi NW 6.9 mph - N/A   Scattered Clouds
11:00 AM 65 °F 47 °F 41% 30.19 in 6 mi NNW 6.9 mph - -   Partly Cloudy
11:00 AM 64.4 °F 46.4 °F 52% 30.18 in 6.2 mi NNW 6.9 mph - N/A   Scattered Clouds
12:00 PM 66.2 °F 48.2 °F 52% 30.18 in 6.2 mi NNW 9.2 mph - N/A   Scattered Clouds
1:00 PM 66.2 °F 50.0 °F 56% 30.15 in 6.2 mi WNW 9.2 mph - N/A   Scattered Clouds
2:00 PM 67 °F 52 °F 48% 30.15 in 6 mi NNW 8.1 mph - -   Partly Cloudy
2:00 PM 66.2 °F 51.8 °F 60% 30.12 in 6.2 mi North 8.1 mph - N/A   Scattered Clouds
3:00 PM 64.4 °F 50.0 °F 59% 30.12 in 6.2 mi NNW 8.1 mph - N/A   Scattered Clouds
4:10 PM 66.2 °F 50.0 °F 56% 30.12 in 6.2 mi North 9.2 mph - N/A   Scattered Clouds
5:00 PM 64 °F 48 °F 45% 30.13 in 6 mi North 2.3 mph - -   Scattered Clouds
5:00 PM 64.4 °F 48.2 °F 56% 30.12 in 6.2 mi North 2.3 mph - N/A   Partly Cloudy
6:00 PM 62.6 °F 48.2 °F 59% 30.12 in 6.2 mi NNW 10.4 mph - N/A   Partly Cloudy
7:00 PM 60.8 °F 48.2 °F 63% 30.15 in 6.2 mi North 11.5 mph - N/A   Partly Cloudy
8:00 PM 61 °F 49 °F 54% 30.17 in 6 mi North 10.4 mph - -   Scattered Clouds
8:00 PM 60.8 °F 48.2 °F 63% 30.15 in 6.2 mi North 10.4 mph - N/A   Partly Cloudy
9:00 PM 60.8 °F 48.2 °F 63% 30.18 in 6.2 mi North 9.2 mph - N/A   Partly Cloudy
10:00 PM 60.8 °F 46.4 °F 59% 30.18 in 6.2 mi North 6.9 mph - N/A   Partly Cloudy
11:00 PM 60 °F 47 °F 52% 30.18 in 6 mi NW 5.8 mph - -   Partly Cloudy
11:00 PM 59.0 °F 46.4 °F 63% 30.18 in 6.2 mi NW 5.8 mph - N/A   Scattered Clouds